Regional Weather Roundup
Issued by NWS

Home | Current Version | Previous Version | Graphics & Text | Print | Product List | Glossary On
Versions: 1 2 3 4 5 6 7 8 9 10 11 12 13 14 15 16 17 18 19 20 21 22 23 24 25 26
000
ASUS45 KTFX 261110
RWRMT
MONTANA REGIONAL WEATHER ROUNDUP
NATIONAL WEATHER SERVICE GREAT FALLS MT
500 AM MDT THU MAY 26 2016

NOTE: "FAIR" INDICATES FEW OR NO CLOUDS BELOW 12000 FEET WITH NO
SIGNIFICANT WEATHER AND/OR OBSTRUCTIONS TO VISIBILITY.

MTZ001>007-043-261200-
WEST OF THE DIVIDE

CITY           SKY/WX    TMP DP  RH WIND       PRES   REMARKS
KALISPELL      CLOUDY    47  47 100 CALM      29.99S
MISSOULA       CLOUDY    51  46  83 CALM      30.04S
BUTTE          CLOUDY    37  34  89 E5        30.06S
MULLAN PASS    CLOUDY    42  38  85 W5        30.08S
ANACONDA         N/A     45  39  81 W3        30.05R
DEER LODGE       N/A     46  43  87 CALM      30.05S
EUREKA           N/A     54  46  76 SE6       29.97S
HAMILTON         N/A     50  41  71 S3        30.04S
LIBBY            N/A     48  46  93 CALM      30.00S
$$

MTZ008-052>055-261200-
SOUTHWEST MONTANA

CITY           SKY/WX    TMP DP  RH WIND       PRES   REMARKS
BOZEMAN        CLOUDY    47  42  83 E5        30.01S
DILLON         MOCLDY    40  33  76 S9        30.04S
ENNIS          MOCLDY    39  34  81 CALM      30.10R
$$

MTZ009-010-012-014-046-048-049-054-261200-
EAST SLOPES AND CENTRAL MONTANA

CITY           SKY/WX    TMP DP  RH WIND       PRES   REMARKS
CUT BANK       LGT RAIN  45  42  89 NW3       29.95S
GREAT FALLS    CLOUDY    42  39  89 SW6       29.95R
MALMSTROM AFB  PTCLDY    47  42  83 SW3       29.95R
HELENA         CLOUDY    49  42  77 CALM      29.98S
CHOTEAU          N/A     46  43  87 CALM      29.96S
$$

MTZ011-013-016-021-045-047-050-051-261200-
NORTH CENTRAL MONTANA

CITY           SKY/WX    TMP DP  RH WIND       PRES   REMARKS
HAVRE            N/A    N/A N/A N/A MISG      29.91S
LEWISTOWN      MOCLDY    45  41  86 SW6       29.94R
N BAR RANCH      N/A     39  37  93 NW5       29.95S
CHINOOK          N/A     45  45 100 CALM      29.91S
$$

MTZ017>020-022>027-061-062-261200-
NORTHEAST MONTANA

CITY           SKY/WX    TMP DP  RH WIND       PRES   REMARKS
GLASGOW        PTCLDY    44  42  93 W6        29.83S
JORDAN           N/A     50  45  83 W10       29.85S
SIDNEY         MOCLDY    46  44  93 N5        29.81F
WOLF POINT     PTCLDY    43  42  97 SW3       29.83R
PLENTYWOOD       N/A     52  52 100 W7        29.79S
$$

MTZ028>42-056>058-261200-
SOUTHCENTRAL AND SOUTHEAST MONTANA

CITY           SKY/WX    TMP DP  RH WIND       PRES   REMARKS
BAKER          PTCLDY    45  42  89 W8        29.86S
BILLINGS       PTCLDY    49  42  77 SW12      29.93S
LIVINGSTON     MOCLDY    45  39  79 NW7       29.99R
MILES CITY     CLOUDY    49  45  86 W8        29.86F
FORSYTH          N/A     48  48 100 W3        29.88R
$$

REGIONAL REPORTS...DAKOTAS

CITY           SKY/WX    TMP DP  RH WIND       PRES   REMARKS
WILLISTON      FOG       47  46  97 W5        29.80F VSB 3/4
MINOT          CLOUDY    57  54  89 W9        29.75R
DICKINSON      CLOUDY    41  38  89 SW3       29.80F
BEACH          CLOUDY    48  48 100 W9        29.86S
CROSBY         CLOUDY    54  54 100 NW3       29.79S FOG
WATFORD CITY     N/A     39  39 100 SW6       29.81S FOG
BISMARCK       CLEAR     45  44  97 SW3       29.80S
GRAND FORKS    CLOUDY    57  55  93 SW3       29.71S
FARGO          CLEAR     54  51  90 W7        29.73S
BUFFALO SD       N/A     42  38  85 S5        29.81R
RAPID CITY     CLEAR     46  42  86 CALM      29.88S
$$

REGIONAL REPORTS...WYOMING/IDAHO/WASHINGTON

CITY           SKY/WX    TMP DP  RH WIND       PRES   REMARKS
GILLETTE       CLEAR     42  39  89 W7        29.94R
SHERIDAN       CLOUDY    49  41  74 W13       29.92F
BUFFALO WY     PTCLDY    46  37  71 W10       29.96S
CODY           CLOUDY    41  37  87 CALM      29.99S
YELLOWSTONE LA   N/A     30  28  92 CALM      30.12S
IDAHO FALLS    MOCLDY    41  38  89 CALM      30.04F
SALMON         CLEAR     39  34  81 CALM      30.06S
BOISE          CLEAR     49  41  74 S5        30.01S
SPOKANE        PTCLDY    51  43  74 S8        30.02R
$$

REGIONAL REPORTS...ALBERTA

CITY           SKY/WX    TMP DP  RH WIND       PRES   REMARKS
EDMONTON       CLOUDY    54  50  87 W7        29.90R
CALGARY        PTCLDY    46  43  87 N3        29.93F
LETHBRIDGE     CLOUDY    46  45  93 W2        29.92F
MEDICINE HAT   CLEAR     41  41 100 S6        29.93R
WATERTON GATE    N/A     48  45  87 S8          N/A
MILK RIVER       N/A     43  41  93 NW7         N/A
ONEFOUR          N/A     41  39  93 NW5         N/A
$$

REGIONAL REPORTS...SASKATCHEWAN

CITY           SKY/WX    TMP DP  RH WIND       PRES   REMARKS
SWIFT CURRENT  CLOUDY    50  50 100 N7        29.88S FOG
REGINA         LGT RAIN  52  52 100 NE14      29.83S
SASKATOON      MOCLDY    52  48  87 N7        29.89S
CYPRESS HILLS    N/A     43  41  93 NW3         N/A
VAL MARIE        N/A     46  45  93 NW3         N/A
ROCKGLEN         N/A     48  48 100 NW9         N/A
ASSINIBOIA       N/A     52  50  93 CALM        N/A
$$




USA.gov is the U.S. government's official web portal to all federal, state and local government web resources and services.